Weather History for Benton Harbor, MI

Change the Weather History Date:

Sunday, April 29, 2012

  Actual Average Record
Temperature  
Mean Temperature 49 °F -  
Max Temperature 64 °F 61 °F 82 °F (1970)
Min Temperature 34 °F 41 °F 27 °F (1979)
Degree Days  
Heating Degree Days 16    
Moisture  
Dew Point 33 °F    
Average Humidity 60    
Maximum Humidity 96    
Minimum Humidity 29    
Precipitation  
Precipitation 0.05 in - - ()
Sea Level Pressure  
Sea Level Pressure 30.22 in    
Wind  
Wind Speed 8 mph (East)    
Max Wind Speed 16 mph    
Max Gust Speed 23 mph    
Visibility 8 miles    
Events Rain    
Averages and records for this station are not official NWS values.
T = Trace of Precipitation, MM = Missing Value Source: NWS Daily Summary

Daily Weather History Graph

Daily Weather History Graph

Search for Another Location

Airport:

Trip Planner

Search our weather history database for the weather conditions in past years. The results will help you decide how hot, cold, wet, or windy it might be!

Date:

Astronomy

Apr. 29, 2012 Rise Set
Actual Time 6:43 AM EDT 8:43 PM EDT
Civil Twilight 6:13 AM EDT 9:13 PM EDT
Nautical Twilight 5:36 AM EDT 9:50 PM EDT
Astronomical Twilight 4:55 AM EDT 10:31 PM EDT
Moon 1:27 PM EDT 2:41 AM EDT
Length of Visible Light 15h 00m
Length of Day
13h 59m
First Quarter, 53% of the Moon is Illuminated
Apr 29
First Quarter
May 5
Full
May 12
Last Quarter
May 20
New
May 28
First Quarter

Hourly Weather History & Observations

Time (EDT) Temp. Windchill Dew Point Humidity Pressure Visibility Wind Dir Wind Speed Gust Speed Precip Events Conditions
12:53 AM 37.9 °F 35.5 °F 36.0 °F 93% 30.24 in 6.0 mi East 3.5 mph - N/A   Clear
1:53 AM 37.0 °F 34.5 °F 36.0 °F 96% 30.25 in 5.0 mi ESE 3.5 mph - N/A   Clear
2:53 AM 35.1 °F 30.1 °F 34.0 °F 96% 30.25 in 4.0 mi ENE 5.8 mph - N/A   Clear
3:53 AM 37.0 °F 33.3 °F 35.1 °F 93% 30.25 in 5.0 mi East 4.6 mph - N/A   Clear
4:53 AM 36.0 °F 32.1 °F 34.0 °F 93% 30.25 in 5.0 mi ENE 4.6 mph - N/A   Clear
5:53 AM 36.0 °F 32.1 °F 33.1 °F 89% 30.26 in 6.0 mi East 4.6 mph - N/A   Clear
6:53 AM 34.0 °F 31.0 °F 32.0 °F 92% 30.30 in 5.0 mi East 3.5 mph - N/A   Clear
8:53 AM 43.0 °F 38.2 °F 33.1 °F 68% 30.30 in 10.0 mi East 8.1 mph - N/A   Clear
9:53 AM 48.0 °F - 30.9 °F 52% 30.28 in 10.0 mi East 12.7 mph - N/A   Clear
10:53 AM 53.1 °F - 30.0 °F 41% 30.29 in 10.0 mi East 11.5 mph - N/A   Clear
11:53 AM 57.0 °F - 28.9 °F 34% 30.29 in 10.0 mi ESE 12.7 mph - N/A   Clear
1:53 PM 62.1 °F - 30.0 °F 30% 30.25 in 10.0 mi East 16.1 mph 19.6 mph N/A   Clear
2:53 PM 63.0 °F - 32.0 °F 31% 30.21 in 10.0 mi East 13.8 mph 23.0 mph N/A   Clear
3:53 PM 64.0 °F - 32.0 °F 30% 30.17 in 10.0 mi East 15.0 mph 21.9 mph N/A   Clear
4:53 PM 64.0 °F - 30.9 °F 29% 30.17 in 10.0 mi East 11.5 mph 20.7 mph N/A   Clear
5:53 PM 62.1 °F - 28.9 °F 29% 30.17 in 10.0 mi ESE 13.8 mph - N/A   Partly Cloudy
6:53 PM 57.0 °F - 37.0 °F 47% 30.15 in 8.0 mi East 9.2 mph - 0.00 in Rain Light Rain
7:53 PM 59.0 °F - 30.0 °F 33% 30.14 in 10.0 mi East 10.4 mph 19.6 mph 0.00 in   Overcast
8:53 PM 55.9 °F - 34.0 °F 44% 30.14 in 10.0 mi East 10.4 mph - 0.00 in Rain Light Rain
9:53 PM 51.1 °F - 39.9 °F 66% 30.14 in 8.0 mi East 12.7 mph 19.6 mph 0.04 in Rain Light Rain
11:53 PM 46.0 °F 40.2 °F 36.0 °F 68% 30.11 in 10.0 mi ESE 12.7 mph - 0.01 in Rain Light Rain